{"data":{"norad_id":62622,"epoch":"2026-05-25T03:41:06.326016Z","epoch_age_seconds":65247,"freshness":"FRESH","line1":"1 62622U 25009P   26145.15354544  .00008875  00000+0  33142-3 0  9996","line2":"2 62622  97.3960 226.2803 0005674  60.3997 299.7807 15.27596118 75349","mean_motion":15.27596118,"eccentricity":0.0005674,"inclination_deg":97.396,"raan_deg":226.2803,"arg_perigee_deg":60.3997,"mean_anomaly_deg":299.7807,"bstar":0.00033142,"rev_number":7534,"period_min":94.265754084615,"perigee_km":479.10782376694,"apogee_km":486.89384298025,"semimajor_km":6861.1378333736,"source":"CELESTRAK","updated_at":"2026-05-25T13:38:13.336113Z"}}